Location: Powder Track
(41.8531°N, 72.3584°W)
Time: 18:36:46
(UTC+00:00)

Vanguard 1 Rocket - Pass Details

Date: 06 August 2021
Orbit: 650 x 4226 km, 34.3° (Epoch: 20 September)

Event Time Altitude Azimuth Distance (km) Brightness Sun altitude
Rises 17:33:06 0° 274° (W) 7,406 12.1 63.4°
Reaches altitude 10° 17:39:00 10° 270° (W) 5,844 11.8 63.0°
Maximum altitude 17:53:43 50° 202° (SSW) 2,200 11.5 61.7°
Drops below altitude 10° 18:01:23 10° 129° (SE) 3,147 10.3 60.9°
Sets 18:03:37 0° 123° (ESE) 3,834 10.6 60.7°
